Hourly Weather Rudnya-Ivanivs'ka

Today, 22 April, Thursday

Time Temperature Precipitation Wind Pressure Humidity
00:00 +5°C° 0 mm 3 mps 742 mmHg 88%
01:00 +5°C° 0 mm 3 mps 742 mmHg 89%
02:00 +5°C° 0 mm 3 mps 742 mmHg 90%
03:00 +4°C° 0 mm 3 mps 742 mmHg 91%
04:00 +4°C° 0 mm 3 mps 742 mmHg 93%
05:00 +4°C° 0 mm 3 mps 742 mmHg 95%
06:00 +7°C° 0 mm 3 mps 742 mmHg 89%
07:00 +8°C° 0 mm 3 mps 742 mmHg 83%
08:00 +10°C° 0 mm 4 mps 743 mmHg 77%
09:00 +12°C° 0.1 mm 4 mps 743 mmHg 70%
10:00 +13°C° 0.1 mm 5 mps 743 mmHg 64%
11:00 +15°C° 0.1 mm 5 mps 742 mmHg 58%
12:00 +15°C° 0.5 mm 5 mps 742 mmHg 57%
13:00 +15°C° 0.5 mm 5 mps 742 mmHg 56%
14:00 +15°C° 0.5 mm 5 mps 742 mmHg 55%
15:00 +13°C° 1.1 mm 5 mps 742 mmHg 64%
16:00 +10°C° 1.1 mm 5 mps 742 mmHg 73%
17:00 +8°C° 1.1 mm 5 mps 742 mmHg 82%
18:00 +8°C° 0.1 mm 4 mps 742 mmHg 85%
19:00 +8°C° 0.1 mm 3 mps 743 mmHg 88%
20:00 +7°C° 0.1 mm 2 mps 743 mmHg 91%
21:00 +7°C° 0.8 mm 3 mps 743 mmHg 90%
22:00 +5°C° 0.8 mm 3 mps 743 mmHg 89%
23:00 +5°C° 0.8 mm 3 mps 744 mmHg 88%

Tomorrow, 23 April, Friday

Time Temperature Precipitation Wind Pressure Humidity
00:00 +4°C° 0 mm 3 mps 744 mmHg 89%
01:00 +4°C° 0 mm 3 mps 744 mmHg 89%
02:00 +3°C° 0 mm 3 mps 744 mmHg 90%
03:00 +3°C° 0 mm 3 mps 744 mmHg 90%
04:00 +2°C° 0 mm 3 mps 744 mmHg 90%
05:00 +3°C° 0 mm 2 mps 744 mmHg 89%
06:00 +3°C° 0 mm 3 mps 745 mmHg 83%
07:00 +3°C° 0 mm 3 mps 745 mmHg 76%
08:00 +4°C° 0 mm 4 mps 745 mmHg 69%
09:00 +6°C° 0 mm 4 mps 745 mmHg 61%
10:00 +7°C° 0 mm 4 mps 745 mmHg 53%
11:00 +8°C° 0 mm 5 mps 745 mmHg 44%
12:00 +8°C° 0 mm 5 mps 745 mmHg 44%
13:00 +8°C° 0 mm 5 mps 745 mmHg 45%
14:00 +8°C° 0 mm 5 mps 745 mmHg 45%
15:00 +8°C° 0.1 mm 5 mps 745 mmHg 47%
16:00 +8°C° 0.1 mm 5 mps 745 mmHg 48%
17:00 +7°C° 0.1 mm 5 mps 745 mmHg 50%
18:00 +6°C° 0.1 mm 4 mps 745 mmHg 59%
19:00 +4°C° 0.1 mm 3 mps 745 mmHg 68%
20:00 +4°C° 0.1 mm 2 mps 745 mmHg 77%
21:00 +3°C° 0 mm 2 mps 745 mmHg 79%
22:00 +3°C° 0 mm 2 mps 745 mmHg 81%
23:00 +2°C° 0 mm 2 mps 745 mmHg 83%

Day after tomorrow, 24 April, Saturday

Time Temperature Precipitation Wind Pressure Humidity
00:00 +1°C° 0 mm 3 mps 745 mmHg 83%
01:00 0°C° 0 mm 4 mps 744 mmHg 83%
02:00 +1°C° 0 mm 4 mps 744 mmHg 83%
03:00 0°C° 0.2 mm 5 mps 744 mmHg 86%
04:00 -1°C° 0.2 mm 5 mps 744 mmHg 88%
05:00 -1°C° 0.2 mm 5 mps 745 mmHg 91%
06:00 -2°C° 0.1 mm 6 mps 745 mmHg 84%
07:00 -1°C° 0.1 mm 6 mps 746 mmHg 77%
08:00 -1°C° 0.1 mm 6 mps 746 mmHg 71%
09:00 +1°C° 0.1 mm 6 mps 746 mmHg 64%
10:00 +2°C° 0.1 mm 6 mps 746 mmHg 57%
11:00 +4°C° 0.1 mm 6 mps 747 mmHg 51%
12:00 +4°C° 0.1 mm 6 mps 747 mmHg 48%
13:00 +5°C° 0.1 mm 6 mps 747 mmHg 45%
14:00 +5°C° 0.1 mm 6 mps 747 mmHg 43%
15:00 +6°C° 0.1 mm 5 mps 746 mmHg 45%
16:00 +6°C° 0.1 mm 5 mps 746 mmHg 48%
17:00 +6°C° 0.1 mm 5 mps 746 mmHg 50%
18:00 +4°C° 0 mm 4 mps 747 mmHg 57%
19:00 +3°C° 0 mm 3 mps 747 mmHg 63%
20:00 +3°C° 0 mm 2 mps 747 mmHg 70%
21:00 +2°C° 0 mm 2 mps 747 mmHg 73%
22:00 +2°C° 0 mm 2 mps 747 mmHg 77%
23:00 +1°C° 0 mm 2 mps 747 mmHg 81%

25 April, Sunday

Time Temperature Precipitation Wind Pressure Humidity
00:00 +1°C° 0 mm 2 mps 747 mmHg 81%
01:00 -1°C° 0 mm 2 mps 747 mmHg 82%
02:00 -1°C° 0 mm 2 mps 746 mmHg 82%
03:00 -1°C° 0 mm 2 mps 746 mmHg 83%
04:00 -1°C° 0 mm 3 mps 746 mmHg 84%
05:00 0°C° 0 mm 3 mps 746 mmHg 85%
06:00 0°C° 0.1 mm 3 mps 746 mmHg 88%
07:00 +2°C° 0.1 mm 2 mps 746 mmHg 90%
08:00 +2°C° 0.1 mm 2 mps 746 mmHg 93%
09:00 +3°C° 0.1 mm 2 mps 746 mmHg 87%
10:00 +2°C° 0.1 mm 3 mps 746 mmHg 81%
11:00 +3°C° 0.1 mm 3 mps 746 mmHg 76%
12:00 +4°C° 0.1 mm 3 mps 746 mmHg 67%
13:00 +5°C° 0.1 mm 4 mps 746 mmHg 59%
14:00 +6°C° 0.1 mm 4 mps 746 mmHg 51%
15:00 +6°C° 0.1 mm 4 mps 746 mmHg 50%
16:00 +6°C° 0.1 mm 4 mps 746 mmHg 50%
17:00 +5°C° 0.1 mm 4 mps 745 mmHg 50%
18:00 +4°C° 0.1 mm 3 mps 746 mmHg 57%
19:00 +3°C° 0.1 mm 2 mps 746 mmHg 65%
20:00 +3°C° 0.1 mm 1 mps 746 mmHg 73%
21:00 +1°C° 0 mm 2 mps 746 mmHg 75%
22:00 +1°C° 0 mm 2 mps 746 mmHg 77%
23:00 -1°C° 0 mm 2 mps 746 mmHg 80%

26 April, Monday

Time Temperature Precipitation Wind Pressure Humidity
00:00 -1°C° 0 mm 2 mps 745 mmHg 82%
01:00 -1°C° 0 mm 2 mps 745 mmHg 85%
02:00 -1°C° 0 mm 2 mps 745 mmHg 87%
03:00 -1°C° 0.1 mm 3 mps 744 mmHg 90%
04:00 -1°C° 0.1 mm 3 mps 744 mmHg 92%
05:00 -2°C° 0.1 mm 3 mps 744 mmHg 94%
06:00 -1°C° 0.1 mm 3 mps 744 mmHg 90%
07:00 -1°C° 0.1 mm 4 mps 745 mmHg 86%
08:00 0°C° 0.1 mm 4 mps 745 mmHg 81%
09:00 +1°C° 0.2 mm 5 mps 745 mmHg 72%
10:00 +2°C° 0.2 mm 5 mps 745 mmHg 62%
11:00 +3°C° 0.2 mm 6 mps 745 mmHg 53%
12:00 +3°C° 0.1 mm 6 mps 744 mmHg 50%
13:00 +5°C° 0.1 mm 5 mps 744 mmHg 48%
14:00 +5°C° 0.1 mm 5 mps 744 mmHg 45%
15:00 +5°C° 0.1 mm 5 mps 744 mmHg 49%
16:00 +5°C° 0.1 mm 4 mps 744 mmHg 53%
17:00 +5°C° 0.1 mm 4 mps 744 mmHg 58%
18:00 +3°C° 0 mm 3 mps 744 mmHg 64%
19:00 +2°C° 0 mm 3 mps 744 mmHg 71%
20:00 +2°C° 0 mm 2 mps 744 mmHg 77%
21:00 +1°C° 0 mm 2 mps 744 mmHg 78%
22:00 +1°C° 0 mm 2 mps 744 mmHg 79%
23:00 +1°C° 0 mm 2 mps 744 mmHg 81%

27 April, Tuesday

Time Temperature Precipitation Wind Pressure Humidity
00:00 +1°C° 0 mm 2 mps 744 mmHg 84%
01:00 -1°C° 0 mm 2 mps 744 mmHg 87%
02:00 -1°C° 0 mm 2 mps 744 mmHg 90%
03:00 -2°C° 0 mm 2 mps 744 mmHg 91%
04:00 -2°C° 0 mm 2 mps 744 mmHg 93%
05:00 -2°C° 0 mm 2 mps 744 mmHg 94%
06:00 +1°C° 0 mm 2 mps 744 mmHg 86%
07:00 +3°C° 0 mm 2 mps 745 mmHg 77%
08:00 +5°C° 0 mm 2 mps 745 mmHg 69%
09:00 +6°C° 0 mm 2 mps 745 mmHg 62%
10:00 +7°C° 0 mm 2 mps 745 mmHg 54%
11:00 +9°C° 0 mm 3 mps 745 mmHg 47%
12:00 +9°C° 0 mm 2 mps 744 mmHg 45%
13:00 +10°C° 0 mm 2 mps 744 mmHg 42%
14:00 +12°C° 0 mm 2 mps 743 mmHg 40%
15:00 +12°C° 0 mm 2 mps 743 mmHg 40%
16:00 +12°C° 0 mm 2 mps 743 mmHg 40%
17:00 +12°C° 0 mm 1 mps 743 mmHg 41%
18:00 +10°C° 0 mm 1 mps 743 mmHg 47%
19:00 +9°C° 0 mm 1 mps 743 mmHg 54%
20:00 +7°C° 0 mm 1 mps 743 mmHg 60%
21:00 +6°C° 0 mm 1 mps 742 mmHg 62%
22:00 +5°C° 0 mm 2 mps 742 mmHg 64%
23:00 +5°C° 0 mm 2 mps 742 mmHg 66%
Show more